Tracking 25648 objects as of 16-May-2022
HD Live streaming from Space Station
objects crossing your sky now

KEPLER-15 (SUDORMRF)

Track KEPLER-15 (SUDORMRF) now!
10-day predictions


NORAD ID: 47461
Int'l Code: 2021-006BA
Perigee: 523.4 km
Apogee: 535.5 km
Inclination: 97.4 °
Period: 95.1 minutes
Semi major axis: 6900 km
RCS: Unknown
Launch date: January 24, 2021
Source: United States (US)
Launch site: ()
aabbcc
Your satellite tracking list
Your tracking list is empty




NASA's NSSDC Master Catalog

Two Line Element Set (TLE):
1 47461U 21006BA  22135.87766494  .00011451  00000-0  62339-3 0  9993
2 47461  97.4413 194.8290 0008752  60.3801 299.8301 15.14562458 72298
Source of the keplerian elements: AFSPC